TimeCDT,TemperatureF,Dew PointF,Humidity,Sea Level PressureIn,VisibilityMPH,Wind Direction,Wind SpeedMPH,Gust SpeedMPH,PrecipitationIn,Events,Conditions,WindDirDegrees,DateUTC
12:53 AM,64.9,39.0,39,30.04,10.0,ESE,9.2,-,N/A,,Clear,120,2011-10-24 05:53:00
1:53 AM,62.1,39.9,44,30.04,10.0,ESE,6.9,-,N/A,,Clear,110,2011-10-24 06:53:00
2:53 AM,61.0,42.1,50,30.03,10.0,ESE,8.1,-,N/A,,Clear,110,2011-10-24 07:53:00
3:53 AM,59.0,43.0,55,30.04,10.0,SE,5.8,-,N/A,,Clear,130,2011-10-24 08:53:00
4:53 AM,55.9,44.1,64,30.03,10.0,East,4.6,-,N/A,,Clear,90,2011-10-24 09:53:00
5:53 AM,57.0,46.0,67,30.03,10.0,ESE,8.1,-,N/A,,Clear,110,2011-10-24 10:53:00
6:53 AM,59.0,48.9,69,30.04,10.0,ESE,10.4,-,N/A,,Clear,110,2011-10-24 11:53:00
7:53 AM,57.0,48.9,74,30.07,10.0,ESE,8.1,-,N/A,,Clear,110,2011-10-24 12:53:00
8:53 AM,60.1,51.1,72,30.09,10.0,ESE,9.2,-,N/A,,Clear,120,2011-10-24 13:53:00
9:53 AM,66.0,53.1,63,30.09,10.0,SE,12.7,-,N/A,,Clear,130,2011-10-24 14:53:00
10:53 AM,72.0,52.0,49,30.09,10.0,SE,12.7,-,N/A,,Clear,130,2011-10-24 15:53:00
11:53 AM,78.1,48.9,36,30.08,10.0,SSE,11.5,18.4,N/A,,Clear,150,2011-10-24 16:53:00
12:53 PM,81.0,48.0,31,30.05,10.0,SE,15.0,-,N/A,,Clear,140,2011-10-24 17:53:00
1:53 PM,84.0,45.0,25,30.02,10.0,SE,15.0,-,N/A,,Clear,140,2011-10-24 18:53:00
2:53 PM,88.0,39.9,18,29.97,10.0,SSE,15.0,21.9,N/A,,Clear,160,2011-10-24 19:53:00
3:53 PM,89.1,35.1,15,29.94,10.0,SSE,18.4,23.0,N/A,,Clear,150,2011-10-24 20:53:00
4:53 PM,89.1,33.1,14,29.93,10.0,SE,15.0,-,N/A,,Clear,130,2011-10-24 21:53:00
5:53 PM,88.0,30.9,13,29.91,10.0,SSE,18.4,23.0,N/A,,Clear,150,2011-10-24 22:53:00
6:53 PM,84.2,32.0,15,30.04,10.0,SE,13.8,21.9,N/A,,Clear,140,2011-10-24 23:53:00
7:53 PM,79.0,36.0,21,29.94,10.0,SE,12.7,-,N/A,,Clear,140,2011-10-25 00:53:00
8:53 PM,77.0,39.9,26,29.95,10.0,SE,15.0,-,N/A,,Clear,140,2011-10-25 01:53:00
9:53 PM,73.4,42.8,33,30.07,10.0,SE,12.7,-,N/A,,Clear,140,2011-10-25 02:53:00
10:53 PM,72.0,44.1,37,29.96,10.0,SE,12.7,-,N/A,,Clear,140,2011-10-25 03:53:00
11:53 PM,70.0,46.0,42,29.95,10.0,SE,11.5,-,N/A,,Clear,140,2011-10-25 04:53:00